Skip Page Navigation
NASA JPL Caltech
NASA Logo - Jet Propulsion Laboratory + View the NASA Portal
+ Center for Near-Earth Object Studies
JPL Home Earth Solar System Stars & Galaxies Technology
JPL Solar System Dynamics
BODIES ORBITS EPHEMERIDES TOOLS PHYSICAL DATA DISCOVERY FAQ SITE MAP
JPL Small-Body Database Browser
Search: [ help ]  
359760 (2011 UW102)
Classification: Main-belt Asteroid          SPK-ID: 2359760
Ephemeris | Orbit Diagram | Orbital Elements | Mission Design | Physical Parameters | Discovery Circumstances | Close-Approach Data ]

[ show orbit diagram ]
Orbital Elements at Epoch 2459000.5 (2020-May-31.0) TDB
Reference: JPL 12 (heliocentric ecliptic J2000)
 Element Value Uncertainty (1-sigma)   Units 
e .1884142726058847 7.8617e-08  
a 2.988492103048253 4.5739e-08 au
q 2.425417537263986 2.5151e-07 au
i 10.84235194504471 8.0232e-06 deg
node 210.7437637774366 2.2955e-05 deg
peri 164.1048610360457 2.6868e-05 deg
M 263.5419719376576 1.4694e-05 deg
tp 2459506.106296972139
(2021-Oct-18.60629697)
8.3548e-05 TDB
period 1887.020402203628
5.17
4.3321e-05
1.186e-07
d
yr
n .1907769516321067 4.3798e-09 deg/d
Q 3.551566668832521 5.4357e-08 au
  Orbit Determination Parameters
   # obs. used (total)      348  
   data-arc span      5960 days (16.32 yr)  
   first obs. used      2004-04-25  
   last obs. used      2020-08-19  
   planetary ephem.      DE431  
   SB-pert. ephem.      SB431-N16  
   condition code      0  
   norm. resid. RMS      .52194  
   source      ORB  
   producer      Otto Matic  
   solution date      2020-Nov-11 16:21:13  

Additional Information
 Earth MOID = 1.42914 au 
 Jupiter MOID = 1.92609 au 
 T_jup = 3.203 
[ show covariance matrix ]

Ephemeris | Orbit Diagram | Orbital Elements | Mission Design | Physical Parameters | Discovery Circumstances | Close-Approach Data ]

Physical Parameter Table
Parameter Symbol Value Units Sigma Reference Notes
absolute magnitude H 15.8   n/a MPO437519  
rotation period rot_per 0.58 h n/a LCDB (Rev. 2019-August); Warner et al., 2009 lower-limit; Incomplete or inconclusive result.
Published Reference List:
[Erasmus, N.; McNeill, A.; Mommert, M.; Trilling, D.E.; et al. (2018) Ap. J. Suppl. Series 237, A19.]
[Erasmus, N.; McNeill, A.; Mommert, N.; Trilling, D.E.; et al. (2019) Ap. J. Suppl. Series 242, A15.]

359760 (2011 UW102)          Discovered 2009-Apr-22 by Mt. Lemmon Survey at Mount Lemmon
Reference: 20130327/Numbers.arcLast Updated: 2013-03-29

[ hide close-approach data ]
Close-Approach Data   ...sorted by Date/Time (TDB)
Date/Time (TDB) Time Uncertainty
(days_HH:MM)
Body Nominal Distance (au) Minimum Distance (au) Maximum Distance (au) V-relative (km/s) V-infinity (km/s) JD (TDB) Time Uncertainty (minutes) Semi-major axis (km) Semi-minor axis (km) range-LOV angle (deg) N-sigma BP Orbit Ref. Reference Modified
1910-Dec-20 13:07 00:07 Jupiter 1.93253619061124 1.93253528874545 1.93253709251031 3.28879736287675 3.15271255798029 2419026.046399384 7.13850603829609 646.141437717461 31.2391631521703 -88.4739308770268 1760043.10129788 T 12 CATAB v2.0f-lin.ifort 2020-Nov-11 16:21:14 2020-Nov-11 16:21
1993-May-24 00:45 00:02 Jupiter 1.94035773059381 1.94035697105531 1.94035849013276 3.07985494164803 2.93469732044232 2449131.531004789 1.67269737743516 149.297376965912 31.731080178059 84.6501071578951 1665516.24931572 T 12 CATAB v2.0f-lin.ifort 2020-Nov-11 16:21:14 2020-Nov-11 16:21
2030-Jan-28 05:50 < 00:01 Jupiter 1.96763688630954 1.96763618706926 1.9676375855497 3.40329135071951 3.2743606894277 2462529.743288071 0.856120904662927 94.1679603459745 30.6617638290302 87.9638835653071 1934620.05746365 T 12 CATAB v2.0f-lin.ifort 2020-Nov-11 16:21:14 2020-Nov-11 16:21
2112-Jul-04 03:22 00:06 Jupiter 1.91921172350096 1.91921099734878 1.9192124496586 3.25634171407057 3.1178652705793 2492636.640302763 6.32394708319031 583.42903524038 31.0616069658671 -89.9618678139885 1725267.88043931 T 12 CATAB v2.0f-lin.ifort 2020-Nov-11 16:21:14 2020-Nov-11 16:21
2194-Dec-07 01:59 00:12 Jupiter 1.95624256438374 1.95623993703303 1.95624519191236 3.11723696408521 2.97509621481076 2522742.582856390 12.0709491230689 995.618340905818 31.1805167321555 81.3962239865162 1710203.98763932 T 12 CATAB v2.0f-lin.ifort 2020-Nov-11 16:21:14 2020-Nov-11 16:21

Alternate Designations
 2011 UW102 = 2009 HU63 
Ephemeris | Orbit Diagram | Orbital Elements | Mission Design | Physical Parameters | Discovery Circumstances | Close-Approach Data ]
ABOUT SSD CREDITS/AWARDS PRIVACY/COPYRIGHT GLOSSARY LINKS
FirstGov 2020-Dec-04 00:40 UT
(server date/time)  
NASA Home Page
Site Manager:   Ryan S. Park
Webmaster  Alan B. Chamberlin